Weather History for KBWI - September, 2011

Change the Weather History Date:

Wednesday, September 14, 2011

  Actual Average Record
Temperature  
Mean Temperature 76 °F 69 °F  
Max Temperature 88 °F 79 °F 94 °F (1931)
Min Temperature 63 °F 59 °F 42 °F (1975)
Degree Days  
Heating Degree Days 0 1  
Month to date heating degree days 2 6  
Since 1 July heating degree days 2 7  
Cooling Degree Days 11 5  
Month to date cooling degree days 106 88  
Year to date cooling degree days 1491 1098  
Growing Degree Days 26 (Base 50)    
Moisture  
Dew Point 65 °F    
Average Humidity 70    
Maximum Humidity 93    
Minimum Humidity 46    
Precipitation  
Precipitation 0.00 in 0.14 in 3.82 in (1966)
Month to date precipitation 9.38 1.75  
Year to date precipitation 42.32 29.60  
Snow  
Snow 0.00 in 0.00 in - ()
Month to date snowfall 0.0 0.0  
Since 1 July snowfall 0.0 0.0  
Snow Depth 0.00 in    
Sea Level Pressure  
Sea Level Pressure 29.93 in    
Wind  
Wind Speed 4 mph (SSW)    
Max Wind Speed 18 mph    
Max Gust Speed 24 mph    
Visibility 9 miles    
Events      
T = Trace of Precipitation, MM = Missing Value Source: NWS Daily Summary

Daily Weather History Graph

Daily Weather History Graph

Search for Another Location

Airport or City:

Trip Planner

Search our weather history database for the weather conditions in past years. The results will help you decide how hot, cold, wet, or windy it might be!

Date:

Astronomy

Sep. 14, 2011 Rise Set
Actual Time 6:46 AM EDT 7:17 PM EDT
Civil Twilight 6:19 AM EDT 7:44 PM EDT
Nautical Twilight 5:48 AM EDT 8:15 PM EDT
Astronomical Twilight 5:15 AM EDT 8:48 PM EDT
Moon 8:02 PM EDT (9/14) 8:54 AM EDT (9/14)
Length of Visible Light 13h 24m
Length of Day
12h 30m
Waning Gibbous, 95% of the Moon is Illuminated
Sep 14
Waning Gibbous
Sep 20
Last Quarter
Sep 27
New
Oct 3
First Quarter
Oct 11
Full

Hourly Weather History & Observations

Time (EDT) Temp. Heat Index Dew Point Humidity Pressure Visibility Wind Dir Wind Speed Gust Speed Precip Events Conditions
12:54 AM 68.0 °F - 64.0 °F 87% 29.94 in 9.0 mi Calm Calm - N/A   Partly Cloudy
1:54 AM 66.2 °F - 64.4 °F 94% 29.94 in 8.0 mi Calm Calm - N/A   Clear
2:54 AM 66.2 °F - 64.4 °F 94% 29.93 in 8.0 mi Calm Calm - N/A   Clear
3:54 AM 66.0 °F - 63.0 °F 90% 29.92 in 7.0 mi SSW 3.5 mph - N/A   Clear
4:54 AM 64.9 °F - 63.0 °F 93% 29.92 in 7.0 mi SW 3.5 mph - N/A   Clear
5:54 AM 64.9 °F - 63.0 °F 93% 29.93 in 7.0 mi SSW 3.5 mph - N/A   Clear
6:54 AM 64.0 °F - 63.0 °F 96% 29.93 in 6.0 mi Calm Calm - N/A   Partly Cloudy
7:54 AM 68.0 °F - 64.9 °F 90% 29.94 in 9.0 mi Calm Calm - N/A   Partly Cloudy
8:54 AM 72.0 °F - 64.9 °F 78% 29.95 in 10.0 mi SW 4.6 mph - N/A   Clear
9:54 AM 77.0 °F - 64.9 °F 66% 29.95 in 10.0 mi SW 3.5 mph - N/A   Clear
10:54 AM 82.0 °F 84.5 °F 66.9 °F 60% 29.96 in 10.0 mi Calm Calm - N/A   Clear
11:54 AM 84.0 °F 85.4 °F 64.0 °F 51% 29.95 in 10.0 mi Variable 3.5 mph - N/A   Partly Cloudy
12:54 PM 86.0 °F 87.6 °F 64.9 °F 49% 29.94 in 10.0 mi SW 8.1 mph - N/A   Partly Cloudy
1:54 PM 87.1 °F 88.3 °F 64.0 °F 46% 29.92 in 10.0 mi SW 6.9 mph - N/A   Scattered Clouds
2:54 PM 88.0 °F 89.3 °F 64.0 °F 45% 29.90 in 10.0 mi SSW 4.6 mph - N/A   Scattered Clouds
3:54 PM 87.1 °F 90.6 °F 68.0 °F 53% 29.89 in 10.0 mi SSE 8.1 mph - N/A   Scattered Clouds
4:54 PM 84.2 °F 85.6 °F 64.4 °F 51% 29.89 in 10.0 mi SSE 9.2 mph - N/A   Scattered Clouds
5:54 PM 82.0 °F 84.9 °F 68.0 °F 62% 29.88 in 10.0 mi SSE 4.6 mph - N/A   Scattered Clouds
6:54 PM 80.1 °F 82.7 °F 68.0 °F 67% 29.87 in 10.0 mi SSE 4.6 mph - N/A   Clear
7:54 PM 77.0 °F - 69.1 °F 76% 29.91 in 10.0 mi South 3.5 mph - N/A   Overcast
8:04 PM 77.0 °F - 69.8 °F 78% 29.92 in 10.0 mi Calm Calm - N/A   Overcast
8:54 PM 75.9 °F - 64.9 °F 69% 29.96 in 10.0 mi NNW 4.6 mph - N/A   Overcast
9:54 PM 73.9 °F - 63.0 °F 68% 29.95 in 10.0 mi WNW 6.9 mph - N/A   Mostly Cloudy
10:54 PM 72.0 °F - 62.1 °F 71% 29.93 in 10.0 mi SSW 3.5 mph - N/A   Overcast
11:54 PM 71.6 °F - 62.6 °F 73% 29.93 in 10.0 mi Calm Calm - N/A   Mostly Cloudy